Weather reports worldwide

Advertisment
Yecla, Spain (8356): temperature & dewpoint: 12.01.2018 06:00:00 - 18.01.2018 06:00:00 (CET)Yecla, Spain (8356): wind speed & gusts: 12.01.2018 06:00:00 - 18.01.2018 06:00:00 (CET)Yecla, Spain (8356): wind direction: 12.01.2018 06:00:00 - 18.01.2018 06:00:00 (CET)Yecla, Spain (8356): reduced air pressure: 12.01.2018 06:00:00 - 18.01.2018 06:00:00 (CET)Yecla, Spain (8356): visibility: 12.01.2018 06:00:00 - 18.01.2018 06:00:00 (CET)Yecla, Spain (8356): sunshine duration: 12.01.2018 06:00:00 - 18.01.2018 06:00:00 (CET)Yecla, Spain (8356): precipitation: 12.01.2018 06:00:00 - 18.01.2018 06:00:00 (CET)
Date & Time tt [°C] td [°C] ff [km/h] ff [kn] fx [km/h] fx [kn] dd ppp [hPa] vv [km] sd [min] rr [mm]
18.01.2018 06:00:00 0,7 -0,5 3 2 8 4 WSW 1028,3 14 0 0,0
18.01.2018 05:00:00 1,1 -0,3 2 1 11 6 W 1028,5 17 0 0,0
18.01.2018 04:00:00 1,6 0,0 5 3 11 6 SW 1028,2 20 0 0,0
18.01.2018 03:00:00 1,8 0,0 3 2 6 4 WSW 1028,4 19 0 0,0
18.01.2018 02:00:00 3,2 0,4 3 1 20 11 NNE 1028,1 20 0 0,0
18.01.2018 01:00:00 3,6 1,1 10 5 16 9 WSW 1028,1 20 0 -
18.01.2018 00:00:00 3,8 1,3 5 3 12 7 NW 1028,0 20 0 0,0
17.01.2018 23:00:00 4,8 1,1 6 3 11 6 W 1027,4 20 0 0,0
17.01.2018 22:00:00 7,5 2,1 3 1 13 7 SSW 1026,5 20 0 0,0
17.01.2018 21:00:00 10,3 2,7 6 4 23 13 ESE 1025,5 20 0 0,0
17.01.2018 20:00:00 11,8 2,9 8 4 - - NW 1024,5 20 - -
17.01.2018 19:00:00 12,7 2,9 7 4 32 18 W 1023,9 20 0 -
17.01.2018 18:00:00 14,0 1,9 11 6 26 14 WNW 1022,9 20 49 0,0
17.01.2018 17:00:00 16,0 1,7 9 5 39 21 NW 1022,0 20 60 0,0
17.01.2018 16:00:00 16,1 0,6 9 5 33 18 N 1021,5 20 60 0,0
17.01.2018 15:00:00 15,7 1,1 9 5 - - ENE 1021,6 20 60 0,0
17.01.2018 14:00:00 14,1 1,3 14 8 48 26 NNE 1022,4 20 60 0,0
17.01.2018 13:00:00 13,6 3,0 6 3 32 18 N 1023,4 20 60 -
17.01.2018 12:00:00 12,8 3,9 6 3 45 24 ESE 1024,1 20 60 0,0
17.01.2018 11:00:00 11,1 3,6 10 5 44 24 WNW 1024,4 20 60 0,0
17.01.2018 10:00:00 9,7 3,6 12 7 41 22 W 1024,6 20 60 0,0
17.01.2018 09:00:00 7,7 3,6 13 7 - - WNW 1024,6 20 11 0,0
17.01.2018 08:00:00 7,2 3,8 8 5 27 15 SW 1024,6 20 0 0,0
17.01.2018 07:00:00 8,0 3,6 9 5 32 17 W 1024,3 20 0 -
17.01.2018 06:00:00 8,3 3,9 11 6 32 17 ESE 1023,3 20 0 0,0
17.01.2018 05:00:00 8,4 4,3 9 5 23 12 SSW 1024,0 20 0 0,0
17.01.2018 04:00:00 8,5 3,9 7 4 37 20 SE 1024,6 20 0 0,0
17.01.2018 03:00:00 9,8 3,8 5 3 50 27 WNW 1024,1 20 0 0,0
17.01.2018 02:00:00 10,3 3,4 22 12 61 33 NW 1024,0 20 0 0,0
17.01.2018 01:00:00 10,8 3,8 12 6 89 48 WSW 1024,6 20 0 -
17.01.2018 00:00:00 12,0 3,4 24 13 63 34 NW 1024,1 20 0 0,0
16.01.2018 23:00:00 12,3 3,2 30 16 77 42 NW 1024,8 20 0 0,0
16.01.2018 22:00:00 11,9 3,0 37 20 71 38 NW 1024,8 20 0 0,0
16.01.2018 21:00:00 12,3 2,7 14 8 65 35 WNW 1025,2 20 0 0,0
16.01.2018 20:00:00 12,5 2,3 17 9 52 28 W 1025,8 20 0 0,0
16.01.2018 19:00:00 12,5 2,9 26 14 49 26 WNW 1025,2 20 0 -
16.01.2018 18:00:00 13,2 2,7 26 14 46 25 WNW 1024,9 20 48 0,0
16.01.2018 17:00:00 15,0 2,9 19 11 38 21 W 1024,6 20 60 0,0
16.01.2018 16:00:00 15,1 4,1 21 11 47 25 W 1024,5 20 60 0,0
16.01.2018 15:00:00 14,5 2,7 17 9 53 28 WNW 1025,0 20 60 0,0
16.01.2018 14:00:00 13,9 2,7 23 13 42 23 W 1025,9 20 60 0,0
16.01.2018 13:00:00 13,0 2,5 16 9 45 24 W 1027,3 20 60 -
16.01.2018 12:00:00 11,6 -0,3 18 10 42 23 W 1028,6 20 60 0,0
16.01.2018 11:00:00 10,5 0,2 16 9 44 24 WSW 1029,0 20 60 0,0
16.01.2018 10:00:00 9,1 -0,7 21 11 45 24 WSW 1028,7 20 60 0,0
16.01.2018 09:00:00 5,7 -1,4 6 3 46 25 ENE 1029,7 20 11 0,0
16.01.2018 08:00:00 7,2 -2,2 14 8 45 24 WNW 1028,8 20 0 0,0
16.01.2018 07:00:00 7,2 -1,2 20 11 53 28 W 1028,3 20 0 -
16.01.2018 06:00:00 7,2 -0,7 23 12 - - WNW 1028,4 20 0 0,0
16.01.2018 05:00:00 6,6 -1,0 19 11 45 24 W 1028,8 20 0 0,0
16.01.2018 04:00:00 6,5 -1,4 19 10 35 19 W 1029,1 20 0 0,0
16.01.2018 03:00:00 6,9 -2,0 22 12 42 23 W 1029,1 20 0 0,0
16.01.2018 02:00:00 6,6 -1,2 19 11 47 25 WNW 1029,4 20 0 0,0
16.01.2018 01:00:00 4,1 0,0 15 8 30 16 WSW 1030,4 20 0 -
16.01.2018 00:00:00 5,4 0,0 14 8 36 20 W 1030,5 20 0 0,0
15.01.2018 23:00:00 6,8 -0,3 16 9 46 25 W 1029,8 20 0 0,0
15.01.2018 22:00:00 7,8 -0,3 18 10 35 19 WNW 1029,1 20 0 0,0
15.01.2018 21:00:00 7,0 -0,5 16 8 31 17 WNW 1028,8 20 0 0,0
15.01.2018 20:00:00 3,6 -0,7 8 5 18 10 WSW 1029,4 20 0 0,0
15.01.2018 19:00:00 5,6 -0,3 9 5 20 11 WSW 1027,8 20 0 -
15.01.2018 18:00:00 8,8 -0,3 13 7 21 12 W 1026,7 20 47 0,0
15.01.2018 17:00:00 10,4 0,9 13 7 26 14 WSW 1025,7 20 41 0,0
15.01.2018 16:00:00 10,8 0,0 7 4 18 10 SW 1025,0 20 33 0,0
15.01.2018 15:00:00 9,7 0,0 10 5 23 12 W 1025,3 20 31 0,0
15.01.2018 14:00:00 10,1 0,9 8 4 18 10 N 1025,4 20 60 0,0
15.01.2018 13:00:00 8,9 1,3 6 4 15 8 NNE 1026,2 20 59 -
15.01.2018 12:00:00 6,8 1,5 6 3 16 9 NE 1027,3 20 2 0,0
15.01.2018 11:00:00 5,4 0,6 11 6 21 12 NNW 1027,2 20 4 0,0
15.01.2018 10:00:00 5,0 0,9 5 3 22 12 E 1026,2 20 0 0,0
15.01.2018 09:00:00 4,9 1,5 11 6 21 11 N 1025,6 20 0 0,0
15.01.2018 08:00:00 4,7 1,5 11 6 28 15 N 1024,5 20 0 0,0
15.01.2018 07:00:00 4,6 1,9 12 7 24 13 N 1024,1 20 0 -
15.01.2018 06:00:00 4,8 1,7 7 4 21 12 NE 1023,4 20 0 0,2
15.01.2018 05:00:00 4,7 1,3 9 5 23 12 E 1023,1 13 0 0,2
15.01.2018 04:00:00 4,9 0,0 7 4 14 7 ENE 1022,8 20 0 0,0
15.01.2018 03:00:00 4,7 0,0 4 2 17 9 E 1022,2 20 0 0,0
15.01.2018 02:00:00 5,5 -0,3 13 7 24 13 N 1021,8 20 0 0,0
15.01.2018 01:00:00 5,7 -0,3 14 8 26 14 N 1021,7 20 0 -
15.01.2018 00:00:00 5,9 0,2 15 8 31 17 NNW 1021,6 20 0 0,0
14.01.2018 23:00:00 5,8 0,9 9 5 18 10 NW 1021,1 20 0 0,0
14.01.2018 22:00:00 4,8 1,9 3 2 7 4 SSW 1020,8 9 0 0,0
14.01.2018 21:00:00 5,5 1,5 3 2 14 8 E 1020,2 20 0 0,0
14.01.2018 20:00:00 5,4 1,9 3 2 17 9 SSW 1019,8 20 0 0,0
14.01.2018 19:00:00 6,0 0,9 12 7 19 10 NNW 1019,6 20 0 -
14.01.2018 18:00:00 6,9 0,4 6 4 15 8 WNW 1019,1 20 0 0,0
14.01.2018 17:00:00 7,7 0,6 5 3 26 14 N 1018,2 20 0 0,0
14.01.2018 16:00:00 8,7 0,2 8 4 27 15 NW 1017,8 20 8 0,0
14.01.2018 15:00:00 9,5 0,2 10 5 31 17 W 1017,3 20 25 0,0
14.01.2018 14:00:00 9,2 -0,5 15 8 34 19 W 1017,8 20 35 0,0
14.01.2018 13:00:00 8,7 0,4 14 8 37 20 W 1018,7 20 48 -
14.01.2018 12:00:00 7,0 0,6 11 6 32 18 W 1020,3 20 37 0,0
14.01.2018 11:00:00 6,0 0,4 16 9 36 20 W 1020,8 20 0 0,0
14.01.2018 10:00:00 5,6 0,2 20 11 48 26 W 1020,3 20 17 0,0
14.01.2018 09:00:00 5,4 -0,3 19 11 58 31 W 1019,9 20 10 0,0
14.01.2018 08:00:00 5,4 -0,5 31 17 58 32 WNW 1019,1 20 0 0,0
14.01.2018 07:00:00 5,4 0,2 31 17 52 28 WNW 1019,2 20 0 -
14.01.2018 06:00:00 5,5 0,4 13 7 42 23 W 1020,0 20 0 0,0
14.01.2018 05:00:00 5,8 -0,3 24 13 62 33 W 1019,4 20 0 0,0
14.01.2018 04:00:00 5,1 0,0 22 12 54 29 W 1019,8 20 0 0,0
14.01.2018 03:00:00 5,7 0,0 12 6 39 21 W 1019,8 20 0 0,0
14.01.2018 02:00:00 6,6 -0,7 18 10 44 24 W 1019,5 20 0 0,0
14.01.2018 01:00:00 6,8 0,2 8 5 23 13 W 1019,9 20 0 -
14.01.2018 00:00:00 5,8 0,9 10 6 19 11 W 1020,0 20 0 0,0
13.01.2018 23:00:00 5,6 0,2 9 5 18 10 W 1019,7 20 0 0,0
13.01.2018 22:00:00 6,6 0,4 8 5 32 17 W 1019,4 20 0 0,0
13.01.2018 21:00:00 5,0 0,9 8 4 13 7 SW 1019,9 20 0 0,0
13.01.2018 20:00:00 6,5 2,3 7 4 10 6 WSW 1019,0 20 0 0,0
13.01.2018 19:00:00 7,4 0,2 6 4 12 6 SSW 1018,8 5 0 -
13.01.2018 18:00:00 8,3 -0,7 10 6 18 10 WSW 1018,7 20 0 0,0
13.01.2018 17:00:00 9,9 -1,4 12 7 18 10 W 1018,1 20 53 0,0
13.01.2018 16:00:00 10,7 0,2 11 6 21 11 SW 1017,6 20 30 0,0
13.01.2018 15:00:00 10,1 -3,0 14 7 19 11 WSW 1017,8 20 0 0,0
13.01.2018 14:00:00 10,1 -1,2 8 4 16 9 SSE 1018,0 20 0 0,0
13.01.2018 13:00:00 10,5 -3,0 10 5 24 13 S 1019,1 20 47 -
13.01.2018 12:00:00 8,2 -1,2 2 1 8 4 E 1021,2 20 54 0,0
13.01.2018 11:00:00 4,2 -1,2 1 1 5 3 S 1022,7 20 22 0,0
13.01.2018 10:00:00 1,2 -1,7 3 1 5 3 ENE 1023,4 20 0 0,0
13.01.2018 09:00:00 -0,1 -2,2 6 4 13 7 WSW 1023,6 20 0 0,0
13.01.2018 08:00:00 -1,8 -3,9 3 2 9 5 E 1024,3 20 0 0,0
13.01.2018 07:00:00 -2,3 -4,5 3 2 9 5 W 1024,2 20 0 -
13.01.2018 06:00:00 -2,1 -4,5 4 2 8 5 W 1024,7 20 0 0,0
13.01.2018 05:00:00 -1,0 -3,6 2 1 17 9 NNE 1024,7 20 0 0,0
13.01.2018 04:00:00 -1,2 -4,5 4 2 8 4 W 1025,3 20 0 0,0
13.01.2018 03:00:00 0,4 -3,3 2 1 9 5 SW 1025,0 20 0 0,0
13.01.2018 02:00:00 1,5 -3,0 2 1 10 5 NNE 1025,4 20 0 0,0
13.01.2018 01:00:00 2,9 -3,6 5 3 13 7 NE 1025,7 20 0 -
13.01.2018 00:00:00 3,3 -2,7 6 4 12 7 E 1026,0 20 0 0,0
12.01.2018 23:00:00 2,4 -3,0 2 1 11 6 NNW 1026,7 20 0 0,0
12.01.2018 22:00:00 4,9 -2,5 7 4 40 22 SE 1026,1 20 0 0,0
12.01.2018 21:00:00 7,1 -1,7 13 7 34 19 WSW 1024,9 20 0 0,0
12.01.2018 20:00:00 6,9 -2,0 8 4 37 20 W 1025,2 20 0 0,0
12.01.2018 19:00:00 8,0 -2,7 23 12 45 24 WNW 1024,0 20 0 -
12.01.2018 18:00:00 8,3 -1,2 16 8 38 21 W 1023,9 20 43 0,0
12.01.2018 17:00:00 9,7 -2,0 18 10 38 20 W 1023,2 20 60 0,0
12.01.2018 16:00:00 10,3 -1,4 23 13 45 24 W 1023,0 20 60 0,0
12.01.2018 15:00:00 10,3 -1,2 17 9 43 23 WNW 1023,3 20 60 0,0
12.01.2018 14:00:00 10,1 -1,7 18 10 43 23 W 1024,0 20 60 0,0
12.01.2018 13:00:00 9,3 -1,7 17 9 40 22 W 1025,1 20 60 -
12.01.2018 12:00:00 7,3 -1,2 22 12 58 31 NNW 1025,9 20 60 0,0
12.01.2018 11:00:00 6,0 -1,4 23 12 61 33 NNW 1026,3 20 60 0,0
12.01.2018 10:00:00 4,5 -1,7 33 18 64 34 NW 1026,4 20 60 0,0
12.01.2018 09:00:00 4,4 -2,0 21 11 44 24 WNW 1026,4 20 10 0,0
12.01.2018 08:00:00 3,6 -2,2 21 11 44 24 W 1026,2 20 0 0,0
12.01.2018 07:00:00 4,1 -2,2 9 5 37 20 W 1025,7 20 0 -
12.01.2018 06:00:00 4,3 -2,5 17 9 40 22 W 1025,0 20 0 0,0

tt = temperature
td = dewpoint
ff = wind speed
fx = gusts
dd = wind direction
ppp = reduced air pressure
vv = visibility
sd = sunshine duration
rr = precipitation

Next stations